| time (UTC) | temp C | wind direction | speed KPH | gust KPH | rain 1hr cm | rain 24hr cm | rain mn cm | humidity % | barometer mb |
| 20260902184510 | 13 | 29 | 3.2 | 12.9 | 0.33 | 0.97 | 0.97 | 91 | 1006.8 |
| 20260902183035 | 13 | 159 | 0.0 | 6.4 | 0.30 | 0.91 | 0.91 | 90 | 1007.1 |
| 20260902181523 | 14 | 266 | 1.6 | 12.9 | 0.20 | 0.71 | 0.71 | 90 | 1007.0 |
| 20260902180028 | 14 | 70 | 0.0 | 4.8 | 0.20 | 0.64 | 0.64 | 90 | 1006.9 |
| 20260902174513 | 14 | 90 | 0.0 | 6.4 | 0.25 | 0.64 | 0.64 | 91 | 1007.2 |
| 20260902173024 | 14 | 17 | 0.0 | 6.4 | 0.33 | 0.61 | 0.61 | 91 | 1007.4 |
| 20260902171519 | 14 | 170 | 0.0 | 4.8 | 0.33 | 0.51 | 0.51 | 91 | 1007.5 |
| 20260902170032 | 14 | 141 | 0.0 | 6.4 | 0.36 | 0.43 | 0.43 | 91 | 1007.5 |
| 20260902164503 | 14 | 105 | 0.0 | 0.0 | 0.36 | 0.38 | 0.38 | 90 | 1007.4 |
| 20260902163009 | 14 | 175 | 0.0 | 0.0 | 0.28 | 0.28 | 0.28 | 89 | 1007.4 |
| 20260902161516 | 14 | 160 | 0.0 | 0.0 | 0.18 | 0.18 | 0.18 | 89 | 1007.4 |
| 20260902160023 | 15 | 160 | 0.0 | 0.0 | 0.08 | 0.08 | 0.08 | 88 | 1007.4 |
| 20260902154527 | 15 | 209 | 0.0 | 3.2 | 0.03 | 0.03 | 0.03 | 87 | 1007.6 |
| 20260902153013 | 14 | 240 | 0.0 | 0.0 | 0.00 | 0.00 | 0.00 | 86 | 1007.6 |
| 20260902151518 | 15 | 211 | 0.0 | 0.0 | 0.00 | 0.00 | 0.00 | 85 | 1007.7 |
| 20260902150025 | 14 | 86 | 0.0 | 0.0 | 0.00 | 0.00 | 0.00 | 84 | 1007.8 |
| 20260902144527 | 14 | 86 | 0.0 | 0.0 | 0.00 | 0.00 | 0.00 | 85 | 1008.1 |
| 20260902143032 | 14 | 86 | 0.0 | 0.0 | 0.00 | 0.00 | 0.00 | 85 | 1008.2 |
| 20260902141513 | 13 | 86 | 0.0 | 0.0 | 0.00 | 0.00 | 0.00 | 84 | 1008.2 |
| 20260902140025 | 14 | 86 | 0.0 | 0.0 | 0.00 | 0.00 | 0.00 | 84 | 1008.3 |
| 20260902134526 | 14 | 86 | 0.0 | 0.0 | 0.00 | 0.00 | 0.00 | 83 | 1008.4 |
| 20260902133029 | 14 | 86 | 0.0 | 0.0 | 0.00 | 0.00 | 0.00 | 83 | 1008.5 |
| 20260902131528 | 14 | 86 | 0.0 | 0.0 | 0.00 | 0.00 | 0.00 | 83 | 1008.8 |
| 20260902130013 | 14 | 86 | 0.0 | 0.0 | 0.00 | 0.00 | 0.00 | 82 | 1008.9 |
| 20260902124513 | 14 | 93 | 0.0 | 0.0 | 0.00 | 0.00 | 0.00 | 82 | 1009.3 |
| 20260902123012 | 14 | 115 | 0.0 | 0.0 | 0.00 | 0.00 | 0.00 | 82 | 1009.6 |
| 20260902121507 | 14 | 146 | 0.0 | 0.0 | 0.00 | 0.00 | 0.00 | 82 | 1009.8 |
| 20260902120015 | 14 | 104 | 0.0 | 0.0 | 0.00 | 0.00 | 0.00 | 83 | 1009.9 |
| 20260902114516 | 15 | 49 | 0.0 | 3.2 | 0.00 | 0.00 | 0.00 | 82 | 1010.1 |
| 20260902113016 | 14 | 129 | 0.0 | 6.4 | 0.00 | 0.00 | 0.00 | 82 | 1010.4 |
| 20260902111507 | 14 | 33 | 0.0 | 3.2 | 0.00 | 0.00 | 0.00 | 83 | 1010.6 |
| 20260902110032 | 14 | 138 | 0.0 | 0.0 | 0.00 | 0.00 | 0.00 | 83 | 1010.7 |
| 20260902104532 | 14 | 173 | 0.0 | 0.0 | 0.00 | 0.00 | 0.00 | 84 | 1010.8 |
| 20260902103035 | 13 | 111 | 0.0 | 3.2 | 0.00 | 0.00 | 0.00 | 85 | 1010.9 |
| 20260902101519 | 13 | 229 | 0.0 | 0.0 | 0.00 | 0.00 | 0.00 | 86 | 1011.0 |
| 20260902100013 | 13 | 229 | 0.0 | 0.0 | 0.00 | 0.00 | 0.00 | 85 | 1011.0 |
| 20260902094519 | 14 | 200 | 0.0 | 0.0 | 0.00 | 0.00 | 0.00 | 84 | 1011.0 |
| 20260902093020 | 14 | 145 | 0.0 | 0.0 | 0.00 | 0.00 | 0.00 | 83 | 1011.2 |
| 20260902091518 | 14 | 119 | 0.0 | 3.2 | 0.00 | 0.00 | 0.00 | 83 | 1011.3 |
| 20260902090026 | 15 | 123 | 0.0 | 3.2 | 0.00 | 0.00 | 0.00 | 83 | 1011.4 |
| 20260902084515 | 14 | 119 | 0.0 | 3.2 | 0.00 | 0.00 | 0.00 | 84 | 1011.6 |
| 20260902083020 | 14 | 117 | 0.0 | 6.4 | 0.00 | 0.00 | 0.00 | 84 | 1011.7 |
| 20260902081525 | 14 | 127 | 1.6 | 3.2 | 0.00 | 0.00 | 0.00 | 84 | 1011.8 |
| 20260902080023 | 14 | 127 | 0.0 | 6.4 | 0.00 | 0.00 | 0.00 | 83 | 1011.9 |
| 20260902074524 | 15 | 138 | 0.0 | 0.0 | 0.00 | 0.00 | 0.00 | 82 | 1012.0 |
| 20260902073017 | 15 | 143 | 0.0 | 1.6 | 0.00 | 0.00 | 0.00 | 81 | 1012.1 |
| 20260902071524 | 15 | 154 | 0.0 | 6.4 | 0.00 | 0.00 | 0.00 | 80 | 1012.1 |
| 20260902070025 | 15 | 121 | 0.0 | 3.2 | 0.00 | 0.00 | 0.00 | 79 | 1012.1 |
| 20260902064525 | 16 | 116 | 0.0 | 8.0 | 0.00 | 0.00 | 0.00 | 78 | 1012.2 |
| 20260902063037 | 16 | 111 | 0.0 | 9.7 | 0.00 | 0.00 | 0.00 | 77 | 1012.4 |
| 20260902061531 | 16 | 116 | 1.6 | 6.4 | 0.00 | 0.00 | 0.00 | 76 | 1012.4 |
| 20260902060036 | 16 | 137 | 1.6 | 4.8 | 0.00 | 0.00 | 0.00 | 75 | 1012.5 |
| 20260902054524 | 16 | 112 | 0.0 | 4.8 | 0.00 | 0.00 | 0.00 | 75 | 1012.5 |
| 20260902053032 | 16 | 121 | 0.0 | 4.8 | 0.00 | 0.00 | 0.00 | 75 | 1012.5 |
| 20260902051522 | 16 | 126 | 1.6 | 4.8 | 0.00 | 0.00 | 0.00 | 74 | 1012.6 |
| 20260902050024 | 16 | 136 | 0.0 | 0.0 | 0.00 | 0.00 | 0.00 | 73 | 1012.6 |
| 20260902044556 | 16 | 172 | 0.0 | 0.0 | 0.00 | 0.00 | 0.00 | 72 | 1012.6 |
| 20260902043031 | 16 | 171 | 0.0 | 1.6 | 0.00 | 0.00 | 0.00 | 72 | 1012.7 |
| 20260902041533 | 16 | 225 | 0.0 | 3.2 | 0.00 | 0.00 | 0.00 | 72 | 1012.7 |
| 20260902040029 | 16 | 175 | 0.0 | 3.2 | 0.00 | 0.00 | 0.00 | 72 | 1012.7 |
| 20260902034504 | 17 | 122 | 0.0 | 1.6 | 0.00 | 0.00 | 0.00 | 72 | 1012.7 |
| 20260902033009 | 17 | 143 | 0.0 | 3.2 | 0.00 | 0.00 | 0.00 | 71 | 1012.6 |
| 20260902031536 | 17 | 194 | 0.0 | 4.8 | 0.00 | 0.00 | 0.00 | 70 | 1012.5 |
| 20260902030018 | 17 | 184 | 0.0 | 4.8 | 0.00 | 0.00 | 0.00 | 69 | 1012.6 |
| 20260902024525 | 17 | 184 | 1.6 | 4.8 | 0.00 | 0.00 | 0.00 | 68 | 1012.5 |
| 20260902023014 | 18 | 112 | 1.6 | 11.3 | 0.00 | 0.00 | 0.00 | 67 | 1012.3 |
| 20260902021512 | 18 | 130 | 3.2 | 6.4 | 0.00 | 0.00 | 0.00 | 67 | 1012.4 |
| 20260902020022 | 18 | 195 | 3.2 | 9.7 | 0.00 | 0.00 | 0.00 | 67 | 1012.3 |
| 20260902014526 | 18 | 171 | 4.8 | 17.7 | 0.00 | 0.00 | 0.00 | 65 | 1012.3 |
| 20260902013004 | 18 | 198 | 1.6 | 12.9 | 0.00 | 0.00 | 0.00 | 66 | 1012.2 |
| 20260902011516 | 18 | 204 | 4.8 | 14.5 | 0.00 | 0.00 | 0.00 | 67 | 1012.2 |
| 20260902010015 | 18 | 178 | 4.8 | 16.1 | 0.00 | 0.00 | 0.00 | 68 | 1012.2 |
| 20260902004523 | 18 | 206 | 4.8 | 16.1 | 0.00 | 0.00 | 0.00 | 69 | 1012.1 |
| 20260902003030 | 18 | 132 | 4.8 | 9.7 | 0.00 | 0.00 | 0.00 | 69 | 1012.2 |
| 20260902001509 | 18 | 176 | 1.6 | 14.5 | 0.00 | 0.00 | 0.00 | 70 | 1012.1 |
| 20260902000011 | 18 | 231 | 4.8 | 19.3 | 0.00 | 0.00 | 0.00 | 69 | 1012.0 |
| 20260901234519 | 18 | 216 | 3.2 | 12.9 | 0.00 | 0.00 | 0.00 | 69 | 1012.0 |
| 20260901233029 | 18 | 155 | 8.0 | 17.7 | 0.00 | 0.00 | 0.00 | 70 | 1012.1 |
| 20260901231535 | 18 | 145 | 6.4 | 20.9 | 0.00 | 0.00 | 0.00 | 71 | 1012.1 |
| 20260901230010 | 17 | 205 | 4.8 | 14.5 | 0.00 | 0.00 | 0.00 | 73 | 1012.2 |
| 20260901224517 | 17 | 181 | 3.2 | 12.9 | 0.00 | 0.00 | 0.00 | 75 | 1012.3 |
| 20260901223021 | 18 | 193 | 0.0 | 4.8 | 0.00 | 0.00 | 0.00 | 74 | 1012.2 |
| 20260901221526 | 18 | 195 | 1.6 | 4.8 | 0.00 | 0.00 | 0.00 | 73 | 1012.4 |
| 20260901220008 | 19 | 315 | 0.0 | 8.0 | 0.00 | 0.00 | 0.00 | 67 | 1012.1 |
| 20260901214515 | 19 | 80 | 1.6 | 8.0 | 0.00 | 0.00 | 0.00 | 67 | 1012.0 |
| 20260901213025 | 19 | 187 | 1.6 | 8.0 | 0.00 | 0.00 | 0.00 | 68 | 1012.0 |
| 20260901211528 | 19 | 229 | 3.2 | 8.0 | 0.00 | 0.00 | 0.00 | 66 | 1012.0 |
| 20260901210029 | 19 | 102 | 1.6 | 11.3 | 0.00 | 0.00 | 0.00 | 64 | 1011.9 |
| 20260901204516 | 19 | 132 | 3.2 | 11.3 | 0.00 | 0.00 | 0.00 | 65 | 1012.0 |
| 20260901203019 | 19 | 104 | 0.0 | 6.4 | 0.00 | 0.00 | 0.00 | 67 | 1012.2 |
| 20260901201522 | 18 | 57 | 4.8 | 9.7 | 0.00 | 0.00 | 0.00 | 67 | 1012.2 |
| 20260901200028 | 18 | 120 | 3.2 | 11.3 | 0.00 | 0.00 | 0.00 | 68 | 1012.4 |
| 20260901194531 | 18 | 113 | 1.6 | 11.3 | 0.00 | 0.00 | 0.00 | 69 | 1012.3 |
| 20260901193014 | 18 | 105 | 1.6 | 6.4 | 0.00 | 0.00 | 0.00 | 70 | 1012.5 |
| 20260901191523 | 18 | 196 | 0.0 | 8.0 | 0.00 | 0.00 | 0.00 | 72 | 1012.5 |
| 20260901190030 | 18 | 113 | 3.2 | 8.0 | 0.00 | 0.00 | 0.00 | 71 | 1012.7 |